Regional Weather Roundup
Issued by NWS Boston, MA

Current Version | Previous Version | Text Only | Print | Product List | Glossary Off
Versions: 1 2 3 4 5 6 7 8 9 10 11 12 13 14 15 16 17 18 19 20 21 22 23 24 25 26 27 28 29 30 31 32 33 34 35 36 37 38 39 40 41 42 43 44 45 46 47 48 49 50
664 ASUS41 KBOX 262310 RWRBOX REGIONAL WEATHER ROUNDUP NATIONAL WEATHER SERVICE BOSTON/NORTON MA 700 PM EDT THU APR 26 2018 NOTE: "FAIR" INDICATES FEW OR NO CLOUDS BELOW 12,000 FEET WITH NO SIGNIFICANT WEATHER AND/OR OBSTRUCTIONS TO VISIBILITY. MAZALL-270000- EASTERN MASSACHUSETTS CITY SKY/WX TMP DP RH WIND PRES REMARKS BOSTON FAIR 61 40 45 W23G30 29.72R BEVERLY FAIR 60 39 45 W20G32 29.70R LAWRENCE FAIR 61 40 45 W13G25 29.72R BEDFORD FAIR 59 39 47 W9G23 29.72R BLUE HILL N/A 58 40 51 W15G30 29.72R NORWOOD FAIR 63 42 46 W18G26 29.73R MARSHFIELD FAIR 64 41 42 VRB6G18 29.71R PLYMOUTH FAIR 66 41 40 W15 29.72R TAUNTON FAIR 65 39 38 W13G21 29.72R NEW BEDFORD FAIR 65 41 41 W15G25 29.72R $$ MAZALL-270000- CAPE COD AND THE ISLANDS CITY SKY/WX TMP DP RH WIND PRES REMARKS FALMOUTH FAIR 55 43 62 SW15 29.74 HYANNIS FAIR 61 43 51 W15 29.72R CHATHAM FAIR 51 46 83 SW12G22 29.74R NANTUCKET FAIR 49 45 86 SW16 29.77R MARTHAS VNYRD FAIR 52 44 74 SW10 29.75R $$ MAZALL-270000- CENTRAL AND WESTERN MASSACHUSETTS CITY SKY/WX TMP DP RH WIND PRES REMARKS WORCESTER FAIR 54 39 57 W13 29.75R FITCHBURG FAIR 58 41 53 W16G28 29.75R ORANGE FAIR 53 41 63 W18G28 29.77R SPRINGFIELD MOCLDY 57 40 53 W14G22 29.78R WESTFIELD CLOUDY 57 41 55 NW16G23 29.79R NORTH ADAMS CLOUDY 49 39 68 W14G24 29.80S PITTSFIELD CLOUDY 49 40 71 W7 29.79S $$ RIZALL-270000- RHODE ISLAND CITY SKY/WX TMP DP RH WIND PRES REMARKS PROVIDENCE FAIR 65 41 41 W14 29.75R NEWPORT FAIR 61 43 51 SW7 29.74R BLOCK ISLAND FAIR 54 44 69 SW14 29.78R SMITHFIELD FAIR 61 40 45 MISG 29.75R WESTERLY FAIR 58 44 60 SW10 29.77R $$ CTZALL-270000- CONNECTICUT CITY SKY/WX TMP DP RH WIND PRES REMARKS BRADLEY INTL FAIR 60 40 47 NW14G23 29.79R HARTFORD FAIR 63 41 44 NW10 29.78R BRIDGEPORT FAIR 67 39 35 NW10 29.77R DANBURY FAIR 62 39 42 NW6 29.80R GROTON FAIR 58 45 62 W10 29.76R NEW HAVEN FAIR 65 40 39 VRB6 29.77R CHESTER FAIR 64 39 39 NW9G15 29.78R MERIDEN FAIR 64 40 41 NW12 29.77R WILLIMANTIC FAIR 63 40 42 W8 29.77R OXFORD FAIR 61 40 45 W12 29.80R $$ MEZ002-015-021-024-NHZ003-005-008-011-012-014-VTZ005-008-270000- NORTHERN NEW ENGLAND CITY SKY/WX TMP DP RH WIND PRES REMARKS PORTLAND ME FAIR 60 43 53 W20G30 29.63R BANGOR ME LGT RAIN 53 52 96 S6 29.57R CONCORD NH FAIR 55 40 56 W12 29.71R MANCHESTER NH FAIR 59 38 45 W14G20 29.71R NASHUA NH FAIR 57 40 52 W12G22 29.74R PORTSMOUTH NH PTCLDY 59 39 46 W17G23 29.66R JAFFREY NH FAIR 52 40 63 W6 29.76R KEENE NH FAIR 53 39 59 VRB7G16 29.77R BURLINGTON VT CLOUDY 51 42 71 NW8 29.73R MT. WASHINGTON FRZ DRZL 30 30 100 W51 N/A VSB 1/16WCI 12 $$ NYZ052-076-270000- EASTERN NEW YORK CITY SKY/WX TMP DP RH WIND PRES REMARKS ALBANY MOCLDY 51 40 65 W10 29.83S NEW YORK CITY FAIR 69 40 34 W12 29.78R $$ ANZALL-270000- MARINE OBSERVATIONS STATION/POSITION TIME TEMP WIND PRES VSBY WAVE AIR SEA DIR/SP/G HT/PER (UTC) (F) (DEG/KT/KT) (MB) (MI) (FT/S) BOSTON BUOY 2250 54 46 270/ 12/ 14 1005.9R 4/11 BUZZARDS BAY 2200 50 230/ 18/ 19 1007.1R NANTUCKET SOUND 2150 49 46 240/ 17/ 21 1006.2 2/ 3 MASS BAY-STELLWA 2204 54 45 1003.0R 6/11 ISLE OF SHOALS 2300 58 260/ 26/ 28 1004.3R S OF BLOCK IS 2243 45 N/A 9/12 $$ ......................KEY......................... SKY/WX - SKY CONDITION/PRESENT WEATHER TMP - TEMPERATURE IN FAHRENHEIT DWPT - DEWPOINT IN FAHRENHEIT RH - RELATIVE HUMIDITY IN PERCENT WIND - DIRECTION AND SPEED IN MPH PRES - MEAN SEA LEVEL PRESSURE IN INCHES OF HG WCI - WIND CHILL INDEX VSB - VISIBILITY IN MILES HX - HEAT INDEX TC - TEMPERATURE IN CELSIUS VRB - VARIABLE WIND DIRECTION N/A - NOT AVAILABLE

USA.gov is the U.S. government's official web portal to all federal, state and local government web resources and services.